CDT,Max TemperatureF,Mean TemperatureF,Min TemperatureF,Max Dew PointF,MeanDew PointF,Min DewpointF,Max Humidity, Mean Humidity, Min Humidity, Max Sea Level PressureIn, Mean Sea Level PressureIn, Min Sea Level PressureIn, Max VisibilityMiles, Mean VisibilityMiles, Min VisibilityMiles, Max Wind SpeedMPH, Mean Wind SpeedMPH, Max Gust SpeedMPH,PrecipitationIn, CloudCover, Events, WindDirDegrees
2011-10-1,59,46,33,43,37,32,100,73,42,30.41,30.33,30.26,10,10,0,6,1,,0.00,1,Fog,97
2011-10-2,73,54,35,50,41,34,100,75,27,30.29,30.22,30.15,10,8,0,7,1,,0.00,2,Fog,141
2011-10-3,73,57,41,52,45,39,100,72,31,30.25,30.21,30.18,10,10,3,9,1,,0.00,0,,128
2011-10-4,78,63,48,52,48,37,94,69,23,30.26,30.19,30.12,10,8,0,8,2,,0.00,1,Fog,140
2011-10-5,82,68,53,54,49,43,88,63,25,30.17,30.13,30.07,10,10,10,8,2,,0.00,0,,143
2011-10-6,78,66,53,54,49,43,88,63,28,30.17,30.13,30.08,10,10,10,14,3,18,0.00,0,,146
2011-10-7,82,71,60,52,48,41,63,43,28,30.10,30.05,29.97,10,10,7,15,7,33,0.00,0,,170
2011-10-8,82,75,68,54,50,45,53,43,32,30.15,30.11,30.05,10,10,10,13,6,23,0.00,1,,186
2011-10-9,78,68,59,54,50,45,77,51,32,30.27,30.21,30.17,10,10,10,10,5,17,0.00,0,,153
2011-10-10,77,65,53,52,48,39,88,62,28,30.17,30.07,29.95,10,10,10,12,3,17,0.00,0,,155
2011-10-11,73,63,53,59,55,52,100,77,50,29.97,29.92,29.85,10,9,2,10,4,,0.00,2,,133
2011-10-12,69,63,57,59,55,54,88,80,56,29.85,29.75,29.65,10,9,3,10,3,18,0.00,6,Thunderstorm,144
2011-10-13,60,56,53,55,49,41,94,78,58,29.62,29.60,29.59,10,9,4,17,8,24,0.00,7,Rain,305
2011-10-14,55,50,46,43,37,32,82,60,41,29.72,29.65,29.60,10,10,10,24,11,32,0.00,3,,301
2011-10-15,59,52,44,37,35,30,76,53,34,29.86,29.82,29.77,10,10,10,18,12,26,0.00,2,,294
2011-10-16,59,52,44,39,33,27,76,49,29,29.85,29.83,29.80,10,10,10,22,8,34,0.00,2,,294
2011-10-17,59,50,41,32,29,25,65,47,27,29.86,29.83,29.79,10,10,10,18,13,28,0.00,0,,291
2011-10-18,48,42,35,36,32,28,81,68,54,30.01,29.92,29.82,10,10,10,15,6,20,0.00,6,Rain,340
2011-10-19,48,44,39,36,33,32,87,67,54,30.03,29.99,29.96,10,10,10,13,7,23,0.00,8,,360
2011-10-20,53,46,39,36,32,28,87,61,41,29.94,29.88,29.83,10,10,10,21,10,28,0.00,4,,338
2011-10-21,59,44,30,36,30,23,93,65,25,30.07,30.02,29.97,10,10,7,6,1,,0.00,0,,310
2011-10-22,59,46,33,39,34,32,93,69,36,30.10,30.04,29.98,10,10,10,9,2,,0.00,0,,319
2011-10-23,62,48,33,45,39,32,93,74,48,30.00,29.88,29.74,10,10,5,14,2,20,0.00,3,Rain,295
2011-10-24,62,48,33,45,38,34,100,72,37,30.07,30.00,29.94,10,10,2,7,1,,0.00,1,,224
2011-10-25,55,48,42,45,42,37,93,76,58,29.99,29.87,29.79,10,10,5,14,4,21,0.00,5,Rain,81
2011-10-26,53,45,37,36,33,28,81,66,41,30.07,30.03,29.97,10,10,7,9,4,,0.00,4,,351
2011-10-27,53,43,33,36,33,30,93,73,44,30.11,30.05,30.02,10,10,5,10,2,18,0.00,4,Rain,329
2011-10-28,55,42,30,34,30,27,100,71,35,30.12,30.05,29.99,10,9,4,14,2,18,0.00,3,,273
2011-10-29,53,40,26,30,26,19,93,62,26,30.09,30.04,30.01,10,10,10,6,1,,0.00,0,,304
2011-10-30,48,44,39,41,34,27,93,74,46,29.98,29.86,29.79,10,10,5,13,6,16,0.00,7,Rain,139
2011-10-31,53,46,37,37,34,32,87,69,47,30.03,29.99,29.92,10,10,7,8,4,,0.00,5,,286